SHK1837 EGNX-CYYR

Flight info

Callsign SHK1837
Flight time N/A
Altitude 36000
Route TNT Q4 VABKA UL8 BILVO UP6 TUPEM DCT AMLAD DCT SUNOT/M080F360 DCT 58N020W 59N030W 59N040W 58N050W DCT CUDDY/N0457F360 DCT FOXXE DCT SCOAT
Aircraft CL60/M-SADE3FGHIJ3J4J7P2RWXY/HB1D1

Departure

Time 2026-05-01 14:41
Airport East Midlands Airport (EGNX)

Arrival

Time N/A
Airport Goose Bay Airport (CYYR)
Time Latitude Longitude Altitude Speed Heading
2026-05-01 13:47 52.82663 -1.34022 304 ft 0 kts 240°
2026-05-01 14:36 52.82667 -1.34011 304 ft 5 kts 55°
2026-05-01 14:37 52.82712 -1.33905 304 ft 17 kts 56°
2026-05-01 14:37 52.82745 -1.33751 303 ft 14 kts 70°
2026-05-01 14:37 52.82811 -1.33709 304 ft 11 kts 352°
2026-05-01 14:37 52.82894 -1.33732 305 ft 15 kts 338°
2026-05-01 14:38 52.82912 -1.33887 306 ft 15 kts 269°
2026-05-01 14:38 52.82909 -1.34065 307 ft 15 kts 267°
2026-05-01 14:38 52.82906 -1.34261 308 ft 20 kts 271°
2026-05-01 14:38 52.82907 -1.34491 309 ft 18 kts 269°
2026-05-01 14:39 52.82904 -1.34630 310 ft 18 kts 268°
2026-05-01 14:39 52.82904 -1.34892 311 ft 7 kts 301°
2026-05-01 14:39 52.82933 -1.34928 311 ft 8 kts 344°
2026-05-01 14:39 52.83057 -1.34921 312 ft 15 kts 32°
2026-05-01 14:40 52.83064 -1.34792 312 ft 22 kts 89°
2026-05-01 14:40 52.83076 -1.34165 309 ft 92 kts 89°
2026-05-01 14:40 52.83104 -1.32709 298 ft 158 kts 89°
2026-05-01 14:40 52.83144 -1.30746 689 ft 176 kts 91°
2026-05-01 14:41 52.83190 -1.28703 1230 ft 181 kts 90°
2026-05-01 14:41 52.83250 -1.26649 1797 ft 182 kts 90°
2026-05-01 14:41 52.83313 -1.24539 2337 ft 184 kts 91°
2026-05-01 14:41 52.83373 -1.22445 2864 ft 184 kts 90°
2026-05-01 14:42 52.83434 -1.20354 3413 ft 185 kts 90°
2026-05-01 14:42 52.83496 -1.18231 3967 ft 186 kts 90°
2026-05-01 14:42 52.83573 -1.16084 4486 ft 191 kts 89°
2026-05-01 14:42 52.83791 -1.14641 4756 ft 202 kts 63°
2026-05-01 14:43 52.85432 -1.13095 5176 ft 227 kts
2026-05-01 14:43 52.87005 -1.13376 5704 ft 233 kts 342°
2026-05-01 14:43 52.88504 -1.14514 6116 ft 243 kts 322°
2026-05-01 14:43 52.89732 -1.16609 6208 ft 264 kts 297°
2026-05-01 14:44 52.90600 -1.19330 6508 ft 276 kts 294°
2026-05-01 14:44 52.92400 -1.25105 7459 ft 286 kts 294°
2026-05-01 14:44 52.93317 -1.28043 7978 ft 288 kts 294°
2026-05-01 14:45 52.93931 -1.30008 8323 ft 289 kts 294°
2026-05-01 14:45 52.96099 -1.36964 9463 ft 294 kts 294°
2026-05-01 14:45 52.97045 -1.40007 9989 ft 296 kts 294°
2026-05-01 14:46 52.97994 -1.43060 10433 ft 299 kts 294°
2026-05-01 14:46 52.99615 -1.48296 10718 ft 321 kts 294°
2026-05-01 14:46 53.01009 -1.52806 10720 ft 338 kts 294°
2026-05-01 14:47 53.02097 -1.56326 10748 ft 348 kts 294°
2026-05-01 14:47 53.03225 -1.59977 10785 ft 355 kts 294°
2026-05-01 14:47 53.04357 -1.63643 10874 ft 358 kts 294°
2026-05-01 14:48 53.06173 -1.71297 11137 ft 356 kts 282°
2026-05-01 14:48 53.06838 -1.75241 11263 ft 357 kts 282°
2026-05-01 14:48 53.08191 -1.83229 11524 ft 359 kts 282°
2026-05-01 14:49 53.09308 -1.89845 11708 ft 360 kts 282°
2026-05-01 14:49 53.10880 -1.99183 11966 ft 360 kts 282°
2026-05-01 14:50 53.11779 -2.04547 12092 ft 360 kts 282°
2026-05-01 14:50 53.13569 -2.15273 12266 ft 362 kts 282°
2026-05-01 14:51 53.14256 -2.19317 12333 ft 364 kts 284°
2026-05-01 14:51 53.16421 -2.26991 12464 ft 367 kts 293°
2026-05-01 14:52 53.18681 -2.34545 12692 ft 366 kts 293°
2026-05-01 14:52 53.19449 -2.37120 12695 ft 368 kts 293°
2026-05-01 14:52 53.21724 -2.44774 12726 ft 371 kts 293°
2026-05-01 14:53 53.23246 -2.49910 12748 ft 372 kts 293°
2026-05-01 14:53 53.24389 -2.53773 12764 ft 373 kts 293°
2026-05-01 14:53 53.25158 -2.56376 12805 ft 373 kts 293°
2026-05-01 14:53 53.26682 -2.61546 12877 ft 372 kts 293°
2026-05-01 14:54 53.27835 -2.65463 12914 ft 372 kts 292°
2026-05-01 14:54 53.28970 -2.69317 12948 ft 372 kts 294°
2026-05-01 14:54 53.30397 -2.72920 12970 ft 377 kts 309°
2026-05-01 14:54 53.32438 -2.75753 12984 ft 382 kts 326°
2026-05-01 14:55 53.33942 -2.77229 12989 ft 383 kts 328°
2026-05-01 14:55 53.36262 -2.79459 12992 ft 384 kts 328°
2026-05-01 14:55 53.39295 -2.82404 13515 ft 370 kts 328°
2026-05-01 14:55 53.41480 -2.84534 13886 ft 363 kts 328°
2026-05-01 14:56 53.43663 -2.86669 14054 ft 364 kts 328°
2026-05-01 14:56 53.45858 -2.88809 14296 ft 362 kts 328°
2026-05-01 14:56 53.47986 -2.90909 14667 ft 356 kts 326°
2026-05-01 14:56 53.49342 -2.92360 14875 ft 353 kts 324°
2026-05-01 14:57 53.52104 -2.95389 15223 ft 352 kts 324°
2026-05-01 14:57 53.55515 -2.99133 15557 ft 353 kts 324°
2026-05-01 14:57 53.58263 -3.02156 15790 ft 355 kts 324°
2026-05-01 14:58 53.60323 -3.04426 15966 ft 356 kts 324°
2026-05-01 14:58 53.62405 -3.06723 16243 ft 363 kts 324°
2026-05-01 14:58 53.63843 -3.08313 16686 ft 367 kts 324°
2026-05-01 14:58 53.65996 -3.10696 17035 ft 382 kts 324°
2026-05-01 14:59 53.69029 -3.14058 17417 ft 401 kts 324°
2026-05-01 14:59 53.70592 -3.15791 17761 ft 405 kts 324°
2026-05-01 14:59 53.72813 -3.18641 18362 ft 405 kts 312°
2026-05-01 14:59 53.75003 -3.23725 19148 ft 404 kts 298°
2026-05-01 15:00 53.77450 -3.30534 20076 ft 410 kts 298°
2026-05-01 15:00 53.79429 -3.36032 20801 ft 415 kts 298°
2026-05-01 15:00 53.80933 -3.40218 21348 ft 418 kts 298°
2026-05-01 15:01 53.82439 -3.44418 21829 ft 422 kts 297°
2026-05-01 15:01 53.83462 -3.47248 22160 ft 425 kts 299°
2026-05-01 15:01 53.85719 -3.52767 22796 ft 431 kts 302°
2026-05-01 15:01 53.87472 -3.56913 23232 ft 435 kts 302°
2026-05-01 15:02 53.89242 -3.61112 23674 ft 438 kts 302°
2026-05-01 15:02 53.89837 -3.62525 23838 ft 439 kts 302°
2026-05-01 15:02 53.92796 -3.69564 24576 ft 443 kts 301°
2026-05-01 15:02 53.93971 -3.72366 24870 ft 445 kts 301°
2026-05-01 15:03 53.96361 -3.78072 25472 ft 448 kts 301°
2026-05-01 15:03 53.97557 -3.80933 25724 ft 450 kts 301°
2026-05-01 15:03 53.99378 -3.85294 26081 ft 454 kts 301°
2026-05-01 15:03 54.01821 -3.91157 26585 ft 457 kts 301°
2026-05-01 15:04 54.03026 -3.94054 26829 ft 459 kts 301°
2026-05-01 15:04 54.05499 -4.00008 27279 ft 462 kts 301°
2026-05-01 15:04 54.07340 -4.04452 27595 ft 465 kts 301°
2026-05-01 15:04 54.09210 -4.08972 27909 ft 467 kts 301°
2026-05-01 15:05 54.11058 -4.13449 28227 ft 469 kts 301°
2026-05-01 15:05 54.12947 -4.18031 28522 ft 470 kts 301°
2026-05-01 15:05 54.14819 -4.22582 28802 ft 472 kts 301°
2026-05-01 15:05 54.16706 -4.27177 29048 ft 475 kts 301°
2026-05-01 15:06 54.18591 -4.31775 29299 ft 476 kts 302°
2026-05-01 15:06 54.20491 -4.36418 29546 ft 478 kts 302°
2026-05-01 15:06 54.22378 -4.41043 29752 ft 480 kts 301°
2026-05-01 15:07 54.26213 -4.50572 29547 ft 496 kts 302°
2026-05-01 15:07 54.30188 -4.60266 29917 ft 496 kts 303°
2026-05-01 15:07 54.32160 -4.65080 30194 ft 494 kts 301°
2026-05-01 15:08 54.34129 -4.69964 30553 ft 490 kts 301°
2026-05-01 15:08 54.36053 -4.74744 30890 ft 488 kts 301°
2026-05-01 15:08 54.37956 -4.79482 31227 ft 485 kts 301°
2026-05-01 15:08 54.39247 -4.82701 31426 ft 484 kts 301°
2026-05-01 15:09 54.41794 -4.89064 31732 ft 483 kts 300°
2026-05-01 15:09 54.43073 -4.92264 31883 ft 483 kts 300°
2026-05-01 15:09 54.45620 -4.98653 32148 ft 483 kts 300°
2026-05-01 15:10 54.49456 -5.08371 32258 ft 489 kts 300°
2026-05-01 15:10 54.53314 -5.18096 32611 ft 488 kts 301°
2026-05-01 15:10 54.55253 -5.22994 32867 ft 486 kts 300°
2026-05-01 15:11 54.57139 -5.27768 33086 ft 485 kts 300°
2026-05-01 15:11 54.60976 -5.37514 33475 ft 484 kts 300°
2026-05-01 15:11 54.62816 -5.42203 33645 ft 484 kts 300°
2026-05-01 15:12 54.64265 -5.45903 33802 ft 483 kts 300°
2026-05-01 15:12 54.68050 -5.55592 34095 ft 484 kts 300°
2026-05-01 15:12 54.69283 -5.58760 34177 ft 485 kts 300°
2026-05-01 15:13 54.75586 -5.75004 34643 ft 485 kts 299°
2026-05-01 15:14 54.79346 -5.84751 34874 ft 485 kts 299°
2026-05-01 15:14 54.81229 -5.89646 35002 ft 485 kts 298°
2026-05-01 15:14 54.84980 -5.99421 35252 ft 484 kts 299°
2026-05-01 15:15 54.88705 -6.09171 35542 ft 482 kts 299°
2026-05-01 15:15 54.92400 -6.18879 35717 ft 482 kts 299°
2026-05-01 15:16 54.95496 -6.27045 35827 ft 484 kts 299°
2026-05-01 15:16 54.99834 -6.38533 36039 ft 484 kts 299°
2026-05-01 15:18 55.09074 -6.63180 36046 ft 485 kts 299°
2026-05-01 15:19 55.16408 -6.82918 36037 ft 483 kts 298°
2026-05-01 15:19 55.21875 -6.97738 36046 ft 484 kts 298°
2026-05-01 15:20 55.27330 -7.12615 36045 ft 484 kts 298°
2026-05-01 15:21 55.30968 -7.22583 36040 ft 484 kts 298°
2026-05-01 15:21 55.34590 -7.32550 36037 ft 484 kts 298°
2026-05-01 15:22 55.40012 -7.47548 36035 ft 485 kts 298°
2026-05-01 15:22 55.43612 -7.57556 36037 ft 485 kts 298°
2026-05-01 15:23 55.47225 -7.67640 36039 ft 485 kts 297°
2026-05-01 15:23 55.50832 -7.77750 36038 ft 484 kts 297°
2026-05-01 15:24 55.54399 -7.87789 36043 ft 484 kts 297°
2026-05-01 15:24 55.57973 -7.97889 36036 ft 484 kts 297°
2026-05-01 15:25 55.60937 -8.06298 36042 ft 484 kts 297°
2026-05-01 15:25 55.65052 -8.18019 36046 ft 484 kts 297°
2026-05-01 15:26 55.68599 -8.28168 36038 ft 483 kts 297°
2026-05-01 15:26 55.72127 -8.38303 36030 ft 483 kts 297°
2026-05-01 15:27 55.75617 -8.48373 36041 ft 482 kts 298°
2026-05-01 15:28 55.80862 -8.63584 36045 ft 482 kts 298°
2026-05-01 15:28 55.84374 -8.73822 36037 ft 482 kts 297°
2026-05-01 15:29 55.89599 -8.89136 36033 ft 482 kts 297°
2026-05-01 15:30 55.95941 -9.07853 36047 ft 482 kts 297°
2026-05-01 15:31 56.06838 -9.40359 36028 ft 482 kts 297°
2026-05-01 15:32 56.13667 -9.60955 36039 ft 481 kts 297°
2026-05-01 15:34 56.23796 -9.91832 36042 ft 481 kts 296°